sat.trackr.live / text

‹ back to catalog

STARLINK-35325

NORAD 66080 · 2025-235Y

PAYLOAD ACTIVE UNKNOWN

§ Identity

Operator
Country
US
Launch date
2025-10-19
Launch site
AFETR
Launch vehicle
Mass (kg)
RCS (m²)

Purposes: comms

External: N2YO · Heavens-Above · Gunter

§ Orbital elements

Epoch: 2026-09-20T17:09:42.355584Z

Period
93.85 min
Inclination
53.1461°
Eccentricity
0.0001764
Mean motion
15.34376808 rev/d
Perigee alt
461.6 km
Apogee alt
464.0 km
Semi-major
6,840.9 km
B*
3.3228e-4
RAAN
56.3445°
Arg perigee
91.5921°
Mean anomaly
268.5284°
Rev number
5,282

§ Raw data

STARLINK-353251 66080U 25235Y   26263.71507356  .00010858  00000+0  33228-3 0  99922 66080  53.1461  56.3445 0001764  91.5921 268.5284 15.34376808 52821

JSON: /api/v1/satellites/66080 · /tle

For live sub-satellite position, see the globe view (requires WebGL).

§ Visibility from observer

Set your observer location to see the next 7 days of passes ≥ 10°. The values pass through the URL so the page stays shareable.

No JS? Fill the form by hand. The geolocation button needs JavaScript.